When you browse on this site, cookies collect data to enhance your experience and personalize the content and advertising you see.
Visit our Privacy Policy to learn more. By continuing to use the site, you agree to this use of cookies and data.
  • In Latvia
  • List of Countries
  • For 7 days
  • Water Temperature
  • Satellite Maps
  • Weather Map
  • Weather Widgets
  • user-avatar
    Login

    Hourly Weather Lowce

    Today, 19 December, Wednesday

    Time Temperature Precipitation Wind Pressure Humidity
    00:00 -4°C° 0 mm 1 mps 754 mmHg 94%
    01:00 -4°C° 0 mm 1 mps 754 mmHg 94%
    02:00 -6°C° 0 mm 1 mps 754 mmHg 94%
    03:00 -6°C° 0 mm 1 mps 754 mmHg 94%
    04:00 -7°C° 0 mm 2 mps 754 mmHg 94%
    05:00 -8°C° 0 mm 2 mps 754 mmHg 94%
    06:00 -8°C° 0 mm 2 mps 754 mmHg 94%
    07:00 -8°C° 0 mm 2 mps 754 mmHg 94%
    08:00 -8°C° 0 mm 2 mps 754 mmHg 94%
    09:00 -8°C° 0 mm 3 mps 753 mmHg 91%
    10:00 -7°C° 0 mm 3 mps 753 mmHg 89%
    11:00 -7°C° 0 mm 3 mps 753 mmHg 87%
    12:00 -6°C° 0 mm 3 mps 753 mmHg 86%
    13:00 -5°C° 0 mm 3 mps 752 mmHg 85%
    14:00 -5°C° 0 mm 3 mps 752 mmHg 84%
    15:00 -5°C° 0 mm 3 mps 752 mmHg 86%
    16:00 -6°C° 0 mm 3 mps 752 mmHg 89%
    17:00 -7°C° 0 mm 3 mps 752 mmHg 91%
    18:00 -7°C° 0 mm 3 mps 751 mmHg 91%
    19:00 -7°C° 0 mm 3 mps 751 mmHg 91%
    20:00 -7°C° 0 mm 3 mps 751 mmHg 91%
    21:00 -7°C° 0 mm 3 mps 751 mmHg 90%
    22:00 -7°C° 0 mm 3 mps 751 mmHg 90%
    23:00 -7°C° 0 mm 3 mps 751 mmHg 89%

    Tomorrow, 20 December, Thursday

    Time Temperature Precipitation Wind Pressure Humidity
    00:00 -7°C° 0 mm 3 mps 750 mmHg 88%
    01:00 -7°C° 0 mm 3 mps 750 mmHg 87%
    02:00 -7°C° 0 mm 3 mps 750 mmHg 87%
    03:00 -7°C° 0 mm 3 mps 750 mmHg 86%
    04:00 -7°C° 0 mm 3 mps 750 mmHg 85%
    05:00 -7°C° 0 mm 3 mps 749 mmHg 85%
    06:00 -6°C° 0 mm 3 mps 749 mmHg 84%
    07:00 -6°C° 0 mm 3 mps 749 mmHg 83%
    08:00 -6°C° 0 mm 3 mps 749 mmHg 83%
    09:00 -5°C° 0 mm 3 mps 749 mmHg 81%
    10:00 -4°C° 0 mm 3 mps 749 mmHg 80%
    11:00 -3°C° 0 mm 4 mps 749 mmHg 78%
    12:00 -2°C° 0 mm 3 mps 749 mmHg 78%
    13:00 -1°C° 0 mm 3 mps 748 mmHg 79%
    14:00 -1°C° 0 mm 3 mps 748 mmHg 79%
    15:00 -1°C° 0.1 mm 3 mps 748 mmHg 81%
    16:00 -1°C° 0.1 mm 3 mps 748 mmHg 84%
    17:00 -2°C° 0.1 mm 3 mps 748 mmHg 86%
    18:00 -2°C° 0.1 mm 3 mps 748 mmHg 87%
    19:00 -2°C° 0.1 mm 3 mps 748 mmHg 88%
    20:00 -2°C° 0.1 mm 3 mps 748 mmHg 89%
    21:00 -2°C° 0.1 mm 3 mps 748 mmHg 89%
    22:00 -2°C° 0.1 mm 3 mps 748 mmHg 89%
    23:00 -2°C° 0.1 mm 3 mps 748 mmHg 90%

    Day after tomorrow, 21 December, Friday

    Time Temperature Precipitation Wind Pressure Humidity
    00:00 -1°C° 0.2 mm 3 mps 748 mmHg 89%
    01:00 -1°C° 0.2 mm 3 mps 748 mmHg 89%
    02:00 -2°C° 0.2 mm 4 mps 749 mmHg 89%
    03:00 -2°C° 0.1 mm 4 mps 748 mmHg 88%
    04:00 -2°C° 0.1 mm 4 mps 748 mmHg 88%
    05:00 -2°C° 0.1 mm 4 mps 748 mmHg 88%
    06:00 -2°C° 0 mm 4 mps 748 mmHg 87%
    07:00 -2°C° 0 mm 4 mps 748 mmHg 87%
    08:00 -2°C° 0 mm 4 mps 748 mmHg 87%
    09:00 -2°C° 0 mm 5 mps 748 mmHg 85%
    10:00 -1°C° 0 mm 5 mps 748 mmHg 84%
    11:00 -1°C° 0 mm 5 mps 747 mmHg 83%
    12:00 0°C° 0.1 mm 5 mps 747 mmHg 84%
    13:00 -1°C° 0.1 mm 6 mps 746 mmHg 84%
    14:00 -1°C° 0.1 mm 6 mps 746 mmHg 85%
    15:00 -1°C° 0.3 mm 6 mps 745 mmHg 84%
    16:00 -1°C° 0.3 mm 6 mps 745 mmHg 83%
    17:00 -1°C° 0.3 mm 6 mps 745 mmHg 83%
    18:00 -1°C° 0.3 mm 6 mps 744 mmHg 83%
    19:00 -1°C° 0.3 mm 7 mps 743 mmHg 83%
    20:00 -1°C° 0.3 mm 7 mps 743 mmHg 83%
    21:00 -1°C° 0.3 mm 7 mps 742 mmHg 83%
    22:00 -1°C° 0.3 mm 7 mps 741 mmHg 83%
    23:00 -1°C° 0.3 mm 7 mps 740 mmHg 83%

    22 December, Saturday

    Time Temperature Precipitation Wind Pressure Humidity
    00:00 -1°C° 0.4 mm 7 mps 740 mmHg 84%
    01:00 0°C° 0.4 mm 7 mps 739 mmHg 85%
    02:00 0°C° 0.4 mm 7 mps 739 mmHg 86%
    03:00 0°C° 0.5 mm 7 mps 738 mmHg 87%
    04:00 0°C° 0.5 mm 7 mps 738 mmHg 87%
    05:00 +2°C° 0.5 mm 7 mps 738 mmHg 88%
    06:00 +2°C° 0.1 mm 7 mps 738 mmHg 88%
    07:00 +2°C° 0.1 mm 7 mps 738 mmHg 88%
    08:00 +2°C° 0.1 mm 7 mps 738 mmHg 88%
    09:00 +2°C° 0 mm 6 mps 738 mmHg 88%
    10:00 +2°C° 0 mm 6 mps 738 mmHg 89%
    11:00 +3°C° 0 mm 6 mps 738 mmHg 89%
    12:00 +3°C° 0.1 mm 6 mps 738 mmHg 89%
    13:00 +3°C° 0.1 mm 6 mps 738 mmHg 89%
    14:00 +3°C° 0.1 mm 6 mps 737 mmHg 89%
    15:00 +3°C° 0.1 mm 6 mps 737 mmHg 89%
    16:00 +3°C° 0.1 mm 6 mps 737 mmHg 89%
    17:00 +3°C° 0.1 mm 6 mps 737 mmHg 89%
    18:00 +3°C° 0.2 mm 6 mps 737 mmHg 89%
    19:00 +3°C° 0.2 mm 6 mps 737 mmHg 89%
    20:00 +3°C° 0.2 mm 6 mps 737 mmHg 89%
    21:00 +3°C° 0.5 mm 6 mps 737 mmHg 89%
    22:00 +3°C° 0.5 mm 6 mps 737 mmHg 89%
    23:00 +3°C° 0.5 mm 7 mps 738 mmHg 89%

    23 December, Sunday

    Time Temperature Precipitation Wind Pressure Humidity
    00:00 +3°C° 0.5 mm 7 mps 738 mmHg 88%
    01:00 +3°C° 0.5 mm 7 mps 738 mmHg 87%
    02:00 +2°C° 0.5 mm 7 mps 738 mmHg 86%
    03:00 +2°C° 0.2 mm 7 mps 739 mmHg 85%
    04:00 +2°C° 0.2 mm 7 mps 739 mmHg 84%
    05:00 +2°C° 0.2 mm 7 mps 739 mmHg 83%
    06:00 +2°C° 0.1 mm 7 mps 739 mmHg 83%
    07:00 +2°C° 0.1 mm 7 mps 739 mmHg 84%
    08:00 +2°C° 0.1 mm 7 mps 739 mmHg 84%
    09:00 +2°C° 0.1 mm 7 mps 739 mmHg 84%
    10:00 +2°C° 0.1 mm 7 mps 740 mmHg 84%
    11:00 +2°C° 0.1 mm 7 mps 740 mmHg 84%
    12:00 +2°C° 0.2 mm 7 mps 740 mmHg 84%
    13:00 +2°C° 0.2 mm 7 mps 740 mmHg 84%
    14:00 +3°C° 0.2 mm 7 mps 741 mmHg 84%
    15:00 +2°C° 0.3 mm 6 mps 741 mmHg 86%
    16:00 +2°C° 0.3 mm 5 mps 741 mmHg 87%
    17:00 +2°C° 0.3 mm 5 mps 742 mmHg 89%
    18:00 +2°C° 0.5 mm 5 mps 742 mmHg 89%
    19:00 +2°C° 0.5 mm 5 mps 742 mmHg 89%
    20:00 +2°C° 0.5 mm 5 mps 742 mmHg 89%
    21:00 +1°C° 0.2 mm 5 mps 742 mmHg 89%
    22:00 +1°C° 0.2 mm 5 mps 743 mmHg 88%
    23:00 +1°C° 0.2 mm 5 mps 743 mmHg 88%

    24 December, Monday

    Time Temperature Precipitation Wind Pressure Humidity
    00:00 +1°C° 0.4 mm 5 mps 743 mmHg 88%
    01:00 +1°C° 0.4 mm 5 mps 743 mmHg 88%
    02:00 +1°C° 0.4 mm 5 mps 743 mmHg 88%
    03:00 +1°C° 0.2 mm 5 mps 743 mmHg 89%
    04:00 +1°C° 0.2 mm 4 mps 742 mmHg 90%
    05:00 +1°C° 0.2 mm 4 mps 742 mmHg 90%
    06:00 0°C° 0.9 mm 4 mps 743 mmHg 91%
    07:00 +1°C° 0.9 mm 3 mps 743 mmHg 92%
    08:00 +1°C° 0.9 mm 3 mps 743 mmHg 92%
    09:00 +1°C° 0.4 mm 3 mps 744 mmHg 92%
    10:00 -1°C° 0.4 mm 4 mps 745 mmHg 91%
    11:00 -1°C° 0.4 mm 4 mps 745 mmHg 90%
    12:00 -1°C° 0.1 mm 4 mps 746 mmHg 88%
    13:00 -1°C° 0.1 mm 4 mps 746 mmHg 87%
    14:00 -1°C° 0.1 mm 5 mps 747 mmHg 86%
    15:00 -1°C° 0 mm 4 mps 747 mmHg 86%
    16:00 -2°C° 0 mm 4 mps 747 mmHg 86%
    17:00 -1°C° 0 mm 3 mps 748 mmHg 85%
    18:00 -1°C° 0 mm 3 mps 748 mmHg 87%
    19:00 -2°C° 0 mm 3 mps 748 mmHg 88%
    20:00 -2°C° 0 mm 2 mps 748 mmHg 90%
    21:00 -1°C° 0.2 mm 3 mps 748 mmHg 91%
    22:00 -1°C° 0.2 mm 3 mps 747 mmHg 92%
    23:00 -1°C° 0.2 mm 4 mps 747 mmHg 93%
    Show more